Time,TemperatureF,DewpointF,PressureIn,WindDirection,WindDirectionDegrees,WindSpeedMPH,WindSpeedGustMPH,Humidity,HourlyPrecipIn,Conditions,Clouds,dailyrainin,SoftwareType,DateUTC
2013-03-08 00:01:00,33.0,23.0,-100.00,North,359,6.0,10.0,68,0.00,,,-99.99,,2013-03-08 07:01:00,
2013-03-08 00:11:00,33.0,23.0,-100.00,North,0,4.0,7.0,68,0.00,,,-99.99,,2013-03-08 07:11:00,
2013-03-08 00:21:00,32.0,23.0,-100.00,NNW,344,4.0,6.0,69,0.00,,,-99.99,,2013-03-08 07:21:00,
2013-03-08 00:31:00,32.0,23.0,-100.00,NNW,344,4.0,6.0,69,0.00,,,-99.99,,2013-03-08 07:31:00,
2013-03-08 00:41:00,32.0,23.0,-100.00,NNW,330,3.0,7.0,71,0.00,,,-99.99,,2013-03-08 07:41:00,
2013-03-08 00:52:00,31.0,23.0,-100.00,NNW,346,4.0,6.0,71,0.00,,,-99.99,,2013-03-08 07:52:00,
2013-03-08 01:01:00,31.0,23.0,-100.00,NNW,346,4.0,6.0,71,0.00,,,-99.99,,2013-03-08 08:01:00,
2013-03-08 01:11:00,31.0,23.0,-100.00,North,10,5.0,9.0,72,0.00,,,-99.99,,2013-03-08 08:11:00,
2013-03-08 01:21:00,31.0,23.0,-100.00,NNE,14,4.0,6.0,70,0.00,,,-99.99,,2013-03-08 08:21:00,
2013-03-08 01:31:00,31.0,23.0,-100.00,NNE,14,4.0,6.0,70,0.00,,,-99.99,,2013-03-08 08:31:00,
2013-03-08 01:41:00,31.0,23.0,-100.00,NNE,14,4.0,6.0,70,0.00,,,-99.99,,2013-03-08 08:41:00,
2013-03-08 01:52:00,31.0,22.0,-100.00,North,353,5.0,9.0,68,0.00,,,-99.99,,2013-03-08 08:52:00,
2013-03-08 02:02:00,31.0,22.0,-100.00,North,353,5.0,9.0,68,0.00,,,-99.99,,2013-03-08 09:02:00,
2013-03-08 02:11:00,31.0,22.0,-100.00,NNW,335,5.0,10.0,69,0.00,,,-99.99,,2013-03-08 09:11:00,
2013-03-08 02:21:00,31.0,22.0,-100.00,NNW,347,4.0,7.0,67,0.00,,,-99.99,,2013-03-08 09:21:00,
2013-03-08 02:31:00,31.0,22.0,-100.00,NNW,347,4.0,7.0,67,0.00,,,-99.99,,2013-03-08 09:31:00,
2013-03-08 02:42:00,31.0,22.0,-100.00,North,360,4.0,7.0,67,0.00,,,-99.99,,2013-03-08 09:42:00,
2013-03-08 02:52:00,31.0,22.0,-100.00,North,10,3.0,6.0,67,0.00,,,-99.99,,2013-03-08 09:52:00,
2013-03-08 03:01:00,31.0,22.0,-100.00,North,10,3.0,6.0,67,0.00,,,-99.99,,2013-03-08 10:01:00,
2013-03-08 03:11:00,32.0,22.0,-100.00,North,4,3.0,6.0,66,0.00,,,-99.99,,2013-03-08 10:11:00,
2013-03-08 03:21:00,32.0,22.0,-100.00,West,275,2.0,5.0,66,0.00,,,-99.99,,2013-03-08 10:21:00,
2013-03-08 03:31:00,32.0,22.0,-100.00,West,275,2.0,5.0,66,0.00,,,-99.99,,2013-03-08 10:31:00,
2013-03-08 03:41:00,32.0,22.0,-100.00,West,267,3.0,6.0,67,0.00,,,-99.99,,2013-03-08 10:41:00,
2013-03-08 03:52:00,32.0,22.0,-100.00,North,350,4.0,9.0,66,0.00,,,-99.99,,2013-03-08 10:52:00,
2013-03-08 04:01:00,32.0,22.0,-100.00,North,350,4.0,9.0,66,0.00,,,-99.99,,2013-03-08 11:01:00,
2013-03-08 04:11:00,31.0,22.0,-100.00,NW,326,3.0,4.0,67,0.00,,,-99.99,,2013-03-08 11:11:00,
2013-03-08 04:21:00,31.0,22.0,-100.00,NW,320,4.0,6.0,68,0.00,,,-99.99,,2013-03-08 11:21:00,
2013-03-08 04:32:00,31.0,22.0,-100.00,NW,320,4.0,6.0,68,0.00,,,-99.99,,2013-03-08 11:32:00,
2013-03-08 04:41:00,30.0,21.0,-100.00,North,350,5.0,8.0,69,0.00,,,-99.99,,2013-03-08 11:41:00,
2013-03-08 04:52:00,31.0,22.0,-100.00,NNW,344,5.0,9.0,68,0.00,,,-99.99,,2013-03-08 11:52:00,
2013-03-08 05:01:00,31.0,22.0,-100.00,NNW,344,5.0,9.0,68,0.00,,,-99.99,,2013-03-08 12:01:00,
2013-03-08 05:11:00,31.0,21.0,-100.00,NNW,329,3.0,6.0,68,0.00,,,-99.99,,2013-03-08 12:11:00,
2013-03-08 05:22:00,31.0,21.0,-100.00,NW,312,3.0,8.0,67,0.00,,,-99.99,,2013-03-08 12:22:00,
2013-03-08 05:32:00,31.0,21.0,-100.00,NW,312,3.0,8.0,67,0.00,,,-99.99,,2013-03-08 12:32:00,
2013-03-08 05:42:00,31.0,21.0,-100.00,North,353,5.0,8.0,68,0.00,,,-99.99,,2013-03-08 12:42:00,
2013-03-08 05:52:00,30.0,21.0,-100.00,NNE,13,5.0,9.0,68,0.00,,,-99.99,,2013-03-08 12:52:00,
2013-03-08 06:01:00,30.0,21.0,-100.00,NNE,13,5.0,9.0,68,0.00,,,-99.99,,2013-03-08 13:01:00,
2013-03-08 06:11:00,31.0,21.0,-100.00,NNE,17,7.0,11.0,68,0.00,,,-99.99,,2013-03-08 13:11:00,
2013-03-08 06:21:00,30.0,21.0,-100.00,NNE,21,5.0,8.0,70,0.00,,,-99.99,,2013-03-08 13:21:00,
2013-03-08 06:32:00,30.0,21.0,-100.00,NNE,21,5.0,8.0,70,0.00,,,-99.99,,2013-03-08 13:32:00,
2013-03-08 06:42:00,29.0,21.0,-100.00,North,1,5.0,10.0,69,0.00,,,-99.99,,2013-03-08 13:42:00,
2013-03-08 06:52:00,29.0,21.0,-100.00,North,354,5.0,7.0,71,0.00,,,-99.99,,2013-03-08 13:52:00,
2013-03-08 07:02:00,29.0,21.0,-100.00,North,354,5.0,7.0,71,0.00,,,-99.99,,2013-03-08 14:02:00,
2013-03-08 07:11:00,29.0,21.0,-100.00,North,11,5.0,9.0,71,0.00,,,-99.99,,2013-03-08 14:11:00,
2013-03-08 07:22:00,29.0,20.0,-100.00,North,1,5.0,9.0,70,0.00,,,-99.99,,2013-03-08 14:22:00,
2013-03-08 07:32:00,29.0,20.0,-100.00,North,1,5.0,9.0,70,0.00,,,-99.99,,2013-03-08 14:32:00,
2013-03-08 07:42:00,29.0,21.0,-100.00,NNE,25,5.0,9.0,71,0.00,,,-99.99,,2013-03-08 14:42:00,
2013-03-08 07:52:00,29.0,21.0,-100.00,North,360,5.0,8.0,72,0.00,,,-99.99,,2013-03-08 14:52:00,
2013-03-08 08:02:00,29.0,21.0,-100.00,North,360,5.0,8.0,72,0.00,,,-99.99,,2013-03-08 15:02:00,
2013-03-08 08:11:00,29.0,21.0,-100.00,NNE,17,5.0,9.0,72,0.00,,,-99.99,,2013-03-08 15:11:00,
2013-03-08 08:21:00,29.0,20.0,-100.00,NNE,14,5.0,11.0,71,0.00,,,-99.99,,2013-03-08 15:21:00,
2013-03-08 08:31:00,29.0,20.0,-100.00,NNE,14,5.0,11.0,71,0.00,,,-99.99,,2013-03-08 15:31:00,
2013-03-08 08:42:00,29.0,20.0,-100.00,NNE,25,6.0,10.0,70,0.00,,,-99.99,,2013-03-08 15:42:00,
2013-03-08 08:53:00,30.0,20.0,-100.00,NNE,25,5.0,7.0,67,0.00,,,-99.99,,2013-03-08 15:53:00,
2013-03-08 09:01:00,30.0,20.0,-100.00,NNE,25,5.0,7.0,67,0.00,,,-99.99,,2013-03-08 16:01:00,
2013-03-08 09:11:00,31.0,20.0,-100.00,North,0,5.0,8.0,65,0.00,,,-99.99,,2013-03-08 16:11:00,
2013-03-08 09:21:00,31.0,21.0,-100.00,North,356,5.0,9.0,65,0.00,,,-99.99,,2013-03-08 16:21:00,
2013-03-08 09:31:00,31.0,21.0,-100.00,North,356,5.0,9.0,65,0.00,,,-99.99,,2013-03-08 16:31:00,
2013-03-08 09:41:00,32.0,21.0,-100.00,NE,41,4.0,6.0,63,0.00,,,-99.99,,2013-03-08 16:41:00,
2013-03-08 09:52:00,33.0,21.0,-100.00,NNW,346,3.0,8.0,60,0.00,,,-99.99,,2013-03-08 16:52:00,
2013-03-08 10:02:00,33.0,21.0,-100.00,NNW,346,3.0,8.0,60,0.00,,,-99.99,,2013-03-08 17:02:00,
2013-03-08 10:11:00,35.0,21.0,-100.00,NNW,337,2.0,5.0,56,0.00,,,-99.99,,2013-03-08 17:11:00,
2013-03-08 10:21:00,37.0,22.0,-100.00,North,354,3.0,5.0,54,0.00,,,-99.99,,2013-03-08 17:21:00,
2013-03-08 10:31:00,37.0,22.0,-100.00,North,354,3.0,5.0,54,0.00,,,-99.99,,2013-03-08 17:31:00,
2013-03-08 10:41:00,38.0,22.0,-100.00,NW,325,4.0,7.0,51,0.00,,,-99.99,,2013-03-08 17:41:00,
2013-03-08 10:52:00,39.0,22.0,-100.00,WNW,295,4.0,6.0,49,0.00,,,-99.99,,2013-03-08 17:52:00,
2013-03-08 11:01:00,39.0,22.0,-100.00,WNW,295,4.0,6.0,49,0.00,,,-99.99,,2013-03-08 18:01:00,
2013-03-08 11:11:00,41.0,22.0,-100.00,WNW,284,4.0,7.0,47,0.00,,,-99.99,,2013-03-08 18:11:00,
2013-03-08 11:21:00,42.0,22.0,-100.00,West,281,3.0,5.0,44,0.00,,,-99.99,,2013-03-08 18:21:00,
2013-03-08 11:31:00,42.0,22.0,-100.00,West,281,3.0,5.0,44,0.00,,,-99.99,,2013-03-08 18:31:00,
2013-03-08 11:42:00,43.0,23.0,-100.00,West,278,3.0,5.0,45,0.00,,,-99.99,,2013-03-08 18:42:00,
2013-03-08 11:52:00,43.0,23.0,-100.00,West,280,4.0,7.0,44,0.00,,,-99.99,,2013-03-08 18:52:00,
2013-03-08 12:01:00,43.0,23.0,-100.00,West,280,4.0,7.0,44,0.00,,,-99.99,,2013-03-08 19:01:00,
2013-03-08 12:11:00,44.0,22.0,-100.00,WNW,285,2.0,3.0,41,0.00,,,-99.99,,2013-03-08 19:11:00,
2013-03-08 12:21:00,45.0,22.0,-100.00,WSW,258,2.0,6.0,40,0.00,,,-99.99,,2013-03-08 19:21:00,
2013-03-08 12:31:00,45.0,22.0,-100.00,WSW,258,2.0,6.0,40,0.00,,,-99.99,,2013-03-08 19:31:00,
2013-03-08 12:41:00,46.0,21.0,-100.00,WSW,250,2.0,3.0,37,0.00,,,-99.99,,2013-03-08 19:41:00,
2013-03-08 12:52:00,48.0,23.0,-100.00,SW,215,1.0,2.0,37,0.00,,,-99.99,,2013-03-08 19:52:00,
2013-03-08 13:01:00,48.0,23.0,-100.00,SW,215,1.0,2.0,37,0.00,,,-99.99,,2013-03-08 20:01:00,
2013-03-08 13:11:00,47.0,23.0,-100.00,East,85,2.0,5.0,37,0.00,,,-99.99,,2013-03-08 20:11:00,
2013-03-08 13:21:00,47.0,21.0,-100.00,WNW,287,2.0,5.0,35,0.00,,,-99.99,,2013-03-08 20:21:00,
2013-03-08 13:31:00,47.0,21.0,-100.00,WNW,287,2.0,5.0,35,0.00,,,-99.99,,2013-03-08 20:31:00,
2013-03-08 13:41:00,46.0,24.0,-100.00,WNW,292,3.0,5.0,40,0.00,,,-99.99,,2013-03-08 20:41:00,
2013-03-08 13:53:00,47.0,25.0,-100.00,NW,313,2.0,4.0,41,0.00,,,-99.99,,2013-03-08 20:53:00,
2013-03-08 14:01:00,47.0,25.0,-100.00,NW,313,2.0,4.0,41,0.00,,,-99.99,,2013-03-08 21:01:00,
2013-03-08 14:11:00,46.0,25.0,-100.00,West,281,2.0,4.0,43,0.00,,,-99.99,,2013-03-08 21:11:00,
2013-03-08 14:21:00,47.0,24.0,-100.00,NW,306,1.0,3.0,41,0.00,,,-99.99,,2013-03-08 21:21:00,
2013-03-08 14:32:00,47.0,24.0,-100.00,NW,306,1.0,3.0,41,0.00,,,-99.99,,2013-03-08 21:32:00,
2013-03-08 14:41:00,46.0,26.0,-100.00,WNW,288,2.0,4.0,45,0.00,,,-99.99,,2013-03-08 21:41:00,
2013-03-08 14:52:00,46.0,25.0,-100.00,WNW,282,2.0,3.0,43,0.00,,,-99.99,,2013-03-08 21:52:00,
2013-03-08 15:01:00,46.0,25.0,-100.00,WNW,282,2.0,3.0,43,0.00,,,-99.99,,2013-03-08 22:01:00,
2013-03-08 15:11:00,47.0,25.0,-100.00,WNW,287,3.0,4.0,41,0.00,,,-99.99,,2013-03-08 22:11:00,
2013-03-08 15:21:00,47.0,24.0,-100.00,WNW,294,3.0,5.0,40,0.00,,,-99.99,,2013-03-08 22:21:00,
2013-03-08 15:32:00,47.0,24.0,-100.00,WNW,294,3.0,5.0,40,0.00,,,-99.99,,2013-03-08 22:32:00,
2013-03-08 15:41:00,48.0,26.0,-100.00,WNW,292,4.0,6.0,41,0.00,,,-99.99,,2013-03-08 22:41:00,
2013-03-08 15:52:00,47.0,25.0,-100.00,WNW,291,4.0,7.0,42,0.00,,,-99.99,,2013-03-08 22:52:00,
2013-03-08 16:01:00,47.0,25.0,-100.00,WNW,291,4.0,7.0,42,0.00,,,-99.99,,2013-03-08 23:01:00,
2013-03-08 16:11:00,48.0,24.0,-100.00,WNW,298,5.0,6.0,40,0.00,,,-99.99,,2013-03-08 23:11:00,
2013-03-08 16:21:00,48.0,24.0,-100.00,West,280,3.0,5.0,39,0.00,,,-99.99,,2013-03-08 23:21:00,
2013-03-08 16:31:00,48.0,24.0,-100.00,West,280,3.0,5.0,39,0.00,,,-99.99,,2013-03-08 23:31:00,
2013-03-08 16:41:00,47.0,24.0,-100.00,West,271,2.0,5.0,40,0.00,,,-99.99,,2013-03-08 23:41:00,
2013-03-08 16:52:00,47.0,24.0,-100.00,West,280,4.0,7.0,41,0.00,,,-99.99,,2013-03-08 23:52:00,
2013-03-08 17:01:00,47.0,24.0,-100.00,West,280,4.0,7.0,41,0.00,,,-99.99,,2013-03-09 00:01:00,
2013-03-08 17:11:00,48.0,23.0,-100.00,WNW,285,2.0,3.0,37,0.00,,,-99.99,,2013-03-09 00:11:00,
2013-03-08 17:21:00,49.0,22.0,-100.00,NW,318,6.0,10.0,34,0.00,,,-99.99,,2013-03-09 00:21:00,
2013-03-08 17:31:00,49.0,22.0,-100.00,NW,318,6.0,10.0,34,0.00,,,-99.99,,2013-03-09 00:31:00,
2013-03-08 17:42:00,49.0,22.0,-100.00,NW,305,6.0,11.0,34,0.00,,,-99.99,,2013-03-09 00:42:00,
2013-03-08 17:52:00,49.0,23.0,-100.00,NNW,328,6.0,10.0,36,0.00,,,-99.99,,2013-03-09 00:52:00,
2013-03-08 18:01:00,49.0,23.0,-100.00,NNW,328,6.0,10.0,36,0.00,,,-99.99,,2013-03-09 01:01:00,
2013-03-08 18:12:00,48.0,22.0,-100.00,NW,315,4.0,7.0,36,0.00,,,-99.99,,2013-03-09 01:12:00,
2013-03-08 18:21:00,48.0,22.0,-100.00,NNW,346,5.0,11.0,36,0.00,,,-99.99,,2013-03-09 01:21:00,
2013-03-08 18:31:00,48.0,22.0,-100.00,NNW,346,5.0,11.0,36,0.00,,,-99.99,,2013-03-09 01:31:00,
2013-03-08 18:41:00,47.0,23.0,-100.00,NNW,336,3.0,7.0,39,0.00,,,-99.99,,2013-03-09 01:41:00,
2013-03-08 18:52:00,46.0,24.0,-100.00,West,281,3.0,5.0,41,0.00,,,-99.99,,2013-03-09 01:52:00,
2013-03-08 19:01:00,46.0,24.0,-100.00,West,281,3.0,5.0,41,0.00,,,-99.99,,2013-03-09 02:01:00,
2013-03-08 19:11:00,45.0,24.0,-100.00,NNW,336,4.0,9.0,42,0.00,,,-99.99,,2013-03-09 02:11:00,
2013-03-08 19:21:00,44.0,24.0,-100.00,NW,306,3.0,5.0,45,0.00,,,-99.99,,2013-03-09 02:21:00,
2013-03-08 19:31:00,44.0,24.0,-100.00,NW,306,3.0,5.0,45,0.00,,,-99.99,,2013-03-09 02:31:00,
2013-03-08 19:41:00,44.0,25.0,-100.00,NW,319,5.0,10.0,47,0.00,,,-99.99,,2013-03-09 02:41:00,
2013-03-08 19:51:00,43.0,25.0,-100.00,NW,318,6.0,11.0,47,0.00,,,-99.99,,2013-03-09 02:51:00,
2013-03-08 20:01:00,43.0,25.0,-100.00,NW,318,6.0,11.0,47,0.00,,,-99.99,,2013-03-09 03:01:00,
2013-03-08 20:11:00,43.0,24.0,-100.00,NW,305,5.0,11.0,47,0.00,,,-99.99,,2013-03-09 03:11:00,
2013-03-08 20:21:00,42.0,23.0,-100.00,NW,315,4.0,8.0,46,0.00,,,-99.99,,2013-03-09 03:21:00,
2013-03-08 20:31:00,42.0,23.0,-100.00,NW,315,4.0,8.0,46,0.00,,,-99.99,,2013-03-09 03:31:00,
2013-03-08 20:41:00,42.0,22.0,-100.00,NW,308,5.0,7.0,45,0.00,,,-99.99,,2013-03-09 03:41:00,
2013-03-08 20:52:00,42.0,22.0,-100.00,NW,318,3.0,7.0,44,0.00,,,-99.99,,2013-03-09 03:52:00,
2013-03-08 21:01:00,42.0,22.0,-100.00,NW,318,3.0,7.0,44,0.00,,,-99.99,,2013-03-09 04:01:00,
2013-03-08 21:11:00,42.0,21.0,-100.00,NW,318,4.0,6.0,43,0.00,,,-99.99,,2013-03-09 04:11:00,
2013-03-08 21:22:00,41.0,21.0,-100.00,WNW,291,4.0,6.0,44,0.00,,,-99.99,,2013-03-09 04:22:00,
2013-03-08 21:31:00,41.0,21.0,-100.00,WNW,291,4.0,6.0,44,0.00,,,-99.99,,2013-03-09 04:31:00,
2013-03-08 21:41:00,40.0,20.0,-100.00,North,4,0.0,1.0,44,0.00,,,-99.99,,2013-03-09 04:41:00,
2013-03-08 21:52:00,41.0,19.0,-100.00,NNW,335,3.0,6.0,41,0.00,,,-99.99,,2013-03-09 04:52:00,
2013-03-08 22:01:00,41.0,19.0,-100.00,NNW,335,3.0,6.0,41,0.00,,,-99.99,,2013-03-09 05:01:00,
2013-03-08 22:11:00,40.0,20.0,-100.00,WNW,282,2.0,5.0,43,0.00,,,-99.99,,2013-03-09 05:11:00,
2013-03-08 22:21:00,40.0,19.0,-100.00,NNW,330,4.0,6.0,43,0.00,,,-99.99,,2013-03-09 05:21:00,
2013-03-08 22:31:00,40.0,19.0,-100.00,NNW,330,4.0,6.0,43,0.00,,,-99.99,,2013-03-09 05:31:00,
2013-03-08 22:42:00,40.0,20.0,-100.00,WNW,302,3.0,6.0,45,0.00,,,-99.99,,2013-03-09 05:42:00,
2013-03-08 22:53:00,39.0,21.0,-100.00,NW,319,2.0,4.0,47,0.00,,,-99.99,,2013-03-09 05:53:00,
2013-03-08 23:01:00,39.0,21.0,-100.00,NW,319,2.0,4.0,47,0.00,,,-99.99,,2013-03-09 06:01:00,
2013-03-08 23:11:00,39.0,21.0,-100.00,NW,316,2.0,4.0,48,0.00,,,-99.99,,2013-03-09 06:11:00,
2013-03-08 23:22:00,39.0,22.0,-100.00,NW,309,3.0,5.0,50,0.00,,,-99.99,,2013-03-09 06:22:00,
2013-03-08 23:31:00,39.0,22.0,-100.00,NW,309,3.0,5.0,50,0.00,,,-99.99,,2013-03-09 06:31:00,
2013-03-08 23:41:00,38.0,22.0,-100.00,NW,308,3.0,6.0,52,0.00,,,-99.99,,2013-03-09 06:41:00,
2013-03-08 23:52:00,38.0,23.0,-100.00,NW,305,3.0,7.0,53,0.00,,,-99.99,,2013-03-09 06:52:00,